Previsão horária em Abdullino

Hoje, 14 Abril, Quarta-feira

Tempo Temperatura Precipitação Vento Pressão Humidade
00:00 +7°C° 0 mm 1 m/s 762 mmHg 97%
01:00 +7°C° 0 mm 1 m/s 762 mmHg 97%
02:00 +7°C° 0 mm 1 m/s 762 mmHg 97%
03:00 +7°C° 0 mm 1 m/s 762 mmHg 98%
04:00 +7°C° 0 mm 1 m/s 762 mmHg 99%
05:00 +7°C° 0 mm 1 m/s 762 mmHg 99%
06:00 +6°C° 0 mm 2 m/s 762 mmHg 99%
07:00 +6°C° 0 mm 2 m/s 762 mmHg 99%
08:00 +7°C° 0 mm 2 m/s 762 mmHg 98%
09:00 +8°C° 0 mm 2 m/s 761 mmHg 96%
10:00 +9°C° 0 mm 2 m/s 761 mmHg 94%
11:00 +12°C° 0 mm 2 m/s 761 mmHg 87%
12:00 +14°C° 0 mm 1 m/s 760 mmHg 79%
13:00 +16°C° 0 mm 1 m/s 760 mmHg 72%
14:00 +16°C° 0 mm 1 m/s 760 mmHg 71%
15:00 +16°C° 0 mm 1 m/s 759 mmHg 70%
16:00 +18°C° 0 mm 1 m/s 759 mmHg 66%
17:00 +15°C° 0 mm 0 m/s 758 mmHg 74%
18:00 +13°C° 0 mm 0 m/s 758 mmHg 82%
19:00 +11°C° 0 mm 0 m/s 758 mmHg 90%
20:00 +10°C° 0 mm 0 m/s 758 mmHg 91%
21:00 +9°C° 0 mm 0 m/s 758 mmHg 92%
22:00 +9°C° 0 mm 1 m/s 757 mmHg 94%
23:00 +9°C° 0 mm 1 m/s 757 mmHg 94%

Amanhã, 15 Abril, Quinta-feira

Tempo Temperatura Precipitação Vento Pressão Humidade
00:00 +8°C° 0 mm 1 m/s 757 mmHg 95%
01:00 +8°C° 0 mm 1 m/s 757 mmHg 95%
02:00 +7°C° 0 mm 1 m/s 757 mmHg 95%
03:00 +7°C° 0 mm 1 m/s 757 mmHg 95%
04:00 +6°C° 0 mm 1 m/s 757 mmHg 95%
05:00 +6°C° 0 mm 2 m/s 756 mmHg 91%
06:00 +7°C° 0 mm 2 m/s 756 mmHg 86%
07:00 +8°C° 0 mm 2 m/s 756 mmHg 82%
08:00 +10°C° 0 mm 2 m/s 756 mmHg 76%
09:00 +12°C° 0 mm 3 m/s 755 mmHg 69%
10:00 +13°C° 0 mm 3 m/s 755 mmHg 63%
11:00 +16°C° 0 mm 3 m/s 755 mmHg 60%
12:00 +17°C° 0 mm 3 m/s 755 mmHg 57%
13:00 +18°C° 0 mm 3 m/s 754 mmHg 54%
14:00 +18°C° 0 mm 3 m/s 754 mmHg 54%
15:00 +18°C° 0 mm 3 m/s 753 mmHg 53%
16:00 +18°C° 0 mm 3 m/s 753 mmHg 53%
17:00 +17°C° 0 mm 3 m/s 753 mmHg 59%
18:00 +15°C° 0 mm 2 m/s 753 mmHg 66%
19:00 +13°C° 0 mm 2 m/s 752 mmHg 72%
20:00 +13°C° 0 mm 2 m/s 752 mmHg 73%
21:00 +12°C° 0 mm 2 m/s 752 mmHg 73%
22:00 +10°C° 0 mm 2 m/s 752 mmHg 74%
23:00 +10°C° 0 mm 2 m/s 752 mmHg 75%

Depois de amanhã, 16 Abril, Sexta-feira

Tempo Temperatura Precipitação Vento Pressão Humidade
00:00 +9°C° 0 mm 2 m/s 752 mmHg 77%
01:00 +9°C° 0 mm 2 m/s 752 mmHg 78%
02:00 +9°C° 0 mm 1 m/s 752 mmHg 79%
03:00 +9°C° 0 mm 1 m/s 752 mmHg 80%
04:00 +8°C° 0 mm 0 m/s 752 mmHg 80%
05:00 +9°C° 0 mm 1 m/s 752 mmHg 80%
06:00 +10°C° 0 mm 1 m/s 752 mmHg 80%
07:00 +10°C° 0 mm 1 m/s 752 mmHg 79%
08:00 +11°C° 0 mm 1 m/s 752 mmHg 75%
09:00 +13°C° 0 mm 2 m/s 752 mmHg 72%
10:00 +14°C° 0 mm 2 m/s 752 mmHg 68%
11:00 +13°C° 0 mm 3 m/s 752 mmHg 67%
12:00 +14°C° 0 mm 3 m/s 752 mmHg 66%
13:00 +14°C° 0 mm 3 m/s 752 mmHg 65%
14:00 +13°C° 0 mm 4 m/s 753 mmHg 69%
15:00 +12°C° 0 mm 4 m/s 753 mmHg 73%
16:00 +10°C° 0 mm 5 m/s 753 mmHg 77%
17:00 +8°C° 0 mm 4 m/s 753 mmHg 79%
18:00 +7°C° 0 mm 4 m/s 753 mmHg 81%
19:00 +6°C° 0 mm 4 m/s 753 mmHg 83%
20:00 +6°C° 0 mm 4 m/s 754 mmHg 85%
21:00 +5°C° 0 mm 3 m/s 754 mmHg 88%
22:00 +4°C° 0 mm 3 m/s 754 mmHg 90%
23:00 +4°C° 0 mm 3 m/s 754 mmHg 91%

17 Abril, Sábado

Tempo Temperatura Precipitação Vento Pressão Humidade
00:00 +3°C° 0 mm 3 m/s 754 mmHg 92%
01:00 +3°C° 0 mm 3 m/s 754 mmHg 93%
02:00 +3°C° 0 mm 3 m/s 754 mmHg 92%
03:00 +2°C° 0 mm 3 m/s 754 mmHg 92%
04:00 +2°C° 0 mm 3 m/s 754 mmHg 91%
05:00 +2°C° 0 mm 3 m/s 754 mmHg 87%
06:00 +3°C° 0 mm 3 m/s 754 mmHg 83%
07:00 +3°C° 0 mm 3 m/s 754 mmHg 79%
08:00 +5°C° 0 mm 3 m/s 754 mmHg 70%
09:00 +6°C° 0 mm 4 m/s 754 mmHg 61%
10:00 +8°C° 0 mm 4 m/s 754 mmHg 52%
11:00 +8°C° 0 mm 4 m/s 754 mmHg 48%
12:00 +10°C° 0 mm 3 m/s 754 mmHg 43%
13:00 +11°C° 0 mm 3 m/s 754 mmHg 39%
14:00 +11°C° 0 mm 3 m/s 754 mmHg 39%
15:00 +11°C° 0 mm 3 m/s 754 mmHg 38%
16:00 +11°C° 0 mm 3 m/s 754 mmHg 38%
17:00 +10°C° 0 mm 3 m/s 753 mmHg 45%
18:00 +8°C° 0 mm 2 m/s 753 mmHg 52%
19:00 +7°C° 0 mm 2 m/s 753 mmHg 59%
20:00 +6°C° 0 mm 2 m/s 753 mmHg 62%
21:00 +6°C° 0 mm 1 m/s 753 mmHg 66%
22:00 +6°C° 0 mm 1 m/s 753 mmHg 69%
23:00 +5°C° 0 mm 1 m/s 753 mmHg 72%

18 Abril, Domingo

Tempo Temperatura Precipitação Vento Pressão Humidade
00:00 +4°C° 0 mm 1 m/s 753 mmHg 74%
01:00 +4°C° 0 mm 1 m/s 753 mmHg 77%
02:00 +4°C° 0 mm 1 m/s 753 mmHg 78%
03:00 +3°C° 0 mm 1 m/s 753 mmHg 79%
04:00 +3°C° 0 mm 1 m/s 753 mmHg 81%
05:00 +3°C° 0 mm 1 m/s 753 mmHg 78%
06:00 +3°C° 0 mm 2 m/s 752 mmHg 75%
07:00 +4°C° 0 mm 2 m/s 752 mmHg 72%
08:00 +3°C° 0 mm 3 m/s 752 mmHg 69%
09:00 +4°C° 0 mm 4 m/s 752 mmHg 66%
10:00 +5°C° 0 mm 5 m/s 752 mmHg 63%
11:00 +5°C° 0 mm 5 m/s 753 mmHg 54%
12:00 +5°C° 0 mm 5 m/s 753 mmHg 45%
13:00 +5°C° 0 mm 5 m/s 753 mmHg 36%
14:00 +5°C° 0 mm 5 m/s 754 mmHg 34%
15:00 +5°C° 0 mm 5 m/s 754 mmHg 33%
16:00 +5°C° 0 mm 4 m/s 754 mmHg 31%
17:00 +4°C° 0 mm 4 m/s 755 mmHg 35%
18:00 +3°C° 0 mm 4 m/s 756 mmHg 39%
19:00 +1°C° 0 mm 4 m/s 756 mmHg 43%
20:00 0°C° 0 mm 4 m/s 757 mmHg 46%
21:00 0°C° 0 mm 3 m/s 757 mmHg 49%
22:00 -1°C° 0 mm 3 m/s 758 mmHg 52%
23:00 -1°C° 0 mm 3 m/s 758 mmHg 53%

19 Abril, Segunda-feira

Tempo Temperatura Precipitação Vento Pressão Humidade
00:00 -1°C° 0 mm 3 m/s 759 mmHg 53%
01:00 -2°C° 0 mm 3 m/s 759 mmHg 53%
02:00 -2°C° 0 mm 3 m/s 760 mmHg 52%
03:00 -2°C° 0 mm 3 m/s 760 mmHg 51%
04:00 -3°C° 0 mm 2 m/s 761 mmHg 50%
05:00 -2°C° 0 mm 3 m/s 761 mmHg 46%
06:00 -2°C° 0 mm 3 m/s 762 mmHg 42%
07:00 -3°C° 0 mm 4 m/s 762 mmHg 38%
08:00 -2°C° 0 mm 4 m/s 762 mmHg 34%
09:00 -1°C° 0 mm 4 m/s 762 mmHg 30%
10:00 -1°C° 0 mm 4 m/s 763 mmHg 27%
11:00 0°C° 0 mm 4 m/s 763 mmHg 27%
12:00 +1°C° 0 mm 4 m/s 763 mmHg 26%
13:00 +1°C° 0 mm 4 m/s 763 mmHg 26%
14:00 +2°C° 0 mm 3 m/s 762 mmHg 27%
15:00 +3°C° 0 mm 3 m/s 762 mmHg 27%
16:00 +3°C° 0 mm 3 m/s 762 mmHg 28%
17:00 +3°C° 0 mm 2 m/s 762 mmHg 34%
18:00 +2°C° 0 mm 2 m/s 763 mmHg 40%
19:00 +2°C° 0 mm 1 m/s 763 mmHg 46%
20:00 +1°C° 0 mm 1 m/s 763 mmHg 48%
21:00 0°C° 0 mm 1 m/s 763 mmHg 50%
22:00 -1°C° 0 mm 0 m/s 764 mmHg 52%
23:00 -1°C° 0 mm 0 m/s 764 mmHg 52%
Mostrar mais

Necessitamos do seu Consentimento

A Meteoprog e os seus Fornecedores de Serviços podem armazenar e aceder a dados pessoais como cookies, identificadores do dispositivo ou outras tecnologias semelhantes existentes no seu dispositivo e processar estes dados para personalizar conteúdos e anúncios, assim como funcionalidades nas redes sociais e análise de tráfego.

  • Armazenar e/ou aceder a informações no seu dispositivo

    Os cookies, identificadores do dispositivo ou outras informações podem ser armazenados ou acedidos no seu dispositivo, para os fins acima indicados.

  • Anúncios e conteúdos personalizados, medição de anúncios e conteúdos, dados sobre o público-alvo e desenvolvimento de produtos

    Os anúncios e os conteúdos podem ser personalizados com base num perfil. Podem ser adicionados dados adicionais para uma maior personalização dos anúncios e dos conteúdos. A eficácia dos anúncios e dos conteúdos pode ser medida. Podem ser obtidas informações sobre o público que visualizou os anúncios e os conteúdos. Estes dados podem ser usados para desenvolver ou melhorar sistemas, softwares ou a experiência do utilizador.

Ao clicar em "Eu concordo”, permitirá o uso de cookies, identificadores do dispositivo e web beacons mencionados ou outras tecnologias semelhantes. As configurações do navegador do seu dispositivo podem ser alteradas.

Para certos fins, podem ser invocados interesses legítimos ao invés de consentimento. Pode ler mais informação sobre este assunto na nossa Política de Privacidade e Cookies.